This demonstration page uses our WeatherBlox Daily Observations layout. Learn more.

Left ArrowRight Arrow

39.12711, -84.51439

Hourly Observations for July 25, 2021

Temp ( °F °C ) Dew Point ( °F °C ) Humidity (%) Winds ( mph kmh ) Pressure ( in mb ) Visibility ( mi km ) Precip ( " mm )
12:53 am 00:53 Clear 74 23.3 68 20 82 82 SW 6 9 29.93 1014 10 16 N/A
1:53 am 01:53 Partly Cloudy 74 23.3 69 20.6 85 85 SW 6 9 29.93 1014 9 14 N/A
2:53 am 02:53 Mostly Cloudy 75 23.9 69 20.6 82 82 N N/A 29.92 1013 9 14 N/A
3:53 am 03:53 Cloudy 74 23.3 70 21.1 88 88 SSW 9 15 29.89 1012 8 13 N/A
4:53 am 04:53 Cloudy 76 24.4 70 21.1 82 82 N N/A 29.91 1013 8 13 N/A
5:53 am 05:53 Cloudy 75 23.9 71 21.7 88 88 N N/A 29.92 1013 7 11 0.00 0.00
6:40 am 06:40 Mostly Cloudy with Mist and Fog 74 23.3 71 21.7 91 91 N N/A 29.91 1013 6 10 N/A
6:53 am 06:53 Cloudy with Mist and Fog 74 23.3 71 21.7 91 91 N N/A 29.91 1013 6 10 N/A
7:53 am 07:53 Mostly Cloudy with Mist and Fog 75 23.9 72 22.2 90 90 SW 8 13 29.94 1014 4 6 N/A
8:53 am 08:53 Cloudy with Mist and Fog 77 25 73 22.8 88 88 SW 5 7 29.95 1014 5 8 N/A
9:53 am 09:53 Sunny 81 27.2 72 22.2 74 74 W 5 7 29.94 1014 8 13 N/A
10:53 am 10:53 Sunny 84 28.9 73 22.8 70 70 W 7 11 29.93 1014 10 16 N/A
11:53 am 11:53 Sunny 86 30 74 23.3 67 67 W 3 6 29.93 1014 10 16 N/A
12:53 pm 12:53 Partly Cloudy 88 31.1 74 23.3 63 63 W 8 13 29.93 1013 10 16 N/A
1:53 pm 13:53 Mostly Cloudy 88 31.1 73 22.8 61 61 W 6 9 29.92 1013 10 16 N/A
2:53 pm 14:53 Partly Cloudy 90 32.2 75 23.9 62 62 WSW 8 13 29.92 1013 10 16 N/A
3:53 pm 15:53 Partly Cloudy 90 32.2 74 23.3 59 59 SSW 8 13 29.91 1013 10 16 N/A
4:53 pm 16:53 Sunny 89 31.7 74 23.3 61 61 W 7 11 29.89 1012 10 16 N/A
5:53 pm 17:53 Mostly Cloudy 87 30.6 74 23.3 65 65 W 5 7 29.88 1012 10 16 N/A
6:53 pm 18:53 Partly Cloudy 87 30.6 75 23.9 67 67 W 8 13 29.88 1012 10 16 N/A
7:53 pm 19:53 Sunny 87 30.6 72 22.2 61 61 WNW 8 13 29.88 1012 10 16 N/A
8:53 pm 20:53 Mostly Cloudy with Light Rain 83 28.3 72 22.2 70 70 NNE 6 9 29.91 1013 10 16 0.00 0.00
9:53 pm 21:53 Partly Cloudy 79 26.1 71 21.7 77 77 N N/A 29.92 1013 10 16 0.05 1.27
10:53 pm 22:53 Mostly Clear 74 23.3 72 22.2 94 94 N N/A 29.93 1014 10 16 N/A
11:53 pm 23:53 Clear 73 22.8 72 22.2 96 96 N N/A 29.94 1014 9 14 N/A

Powered by AerisWeather